Wind_Speed
6 6 3 3 4 7 12 13 11 11 13 8 8 7 8 9 7 5 3 1 1 3 5 5 5 7 8 8 9 9 10 11 13 14 15 16 16 16 17 19 19 19 20 20 19 18 19 19 20
4 8 7 6 5 4 8 11 14 10 10 5 5 6 5 6 4 5 4 2 2 2 2 4 5 6 7 8 9 10 11 11 11 14 16 17 19 20 21 21 22 22 22 23 22 21 21 22 24
6 9 12 6 4 7 6 5 10 12 11 6 6 5 11 7 1 5 4 2 0 2 3 5 6 6 7 8 9 9 11 13 13 14 16 17 20 22 24 25 25 25 25 24 25 24 24 25 26
8 8 9 11 10 12 12 12 10 7 9 5 7 8 10 6 1 3 5 3 1 0 1 3 5 7 9 11 12 13 14 15 16 16 18 20 21 23 24 25 25 26 27 27 27 27 28 28 28
10 10 15 12 9 15 11 9 11 8 6 4 6 6 7 6 4 4 4 6 5 6 6 7 8 10 12 13 16 18 20 21 21 22 23 24 26 26 26 27 27 28 27 28 30 31 31 32 32
11 14 13 11 10 8 9 11 13 8 4 4 4 8 6 5 7 10 12 11 7 8 10 12 13 14 16 17 19 21 22 25 26 26 27 28 28 29 31 30 30 30 31 30 30 32 34 36 35
13 12 11 9 9 11 11 11 11 9 6 5 8 12 6 4 7 11 12 11 8 11 12 15 15 17 17 18 20 22 24 26 28 29 29 31 32 33 32 31 31 32 33 34 34 33 33 33 33
9 11 10 11 13 16 9 7 8 6 6 9 9 8 7 6 10 15 9 11 8 10 12 15 16 18 21 22 23 24 26 27 29 32 33 34 35 35 36 36 35 33 33 35 37 36 34 33 34
3 8 11 11 13 16 14 8 6 8 8 6 11 11 12 12 11 14 16 14 16 17 17 20 22 24 25 24 23 22 26 28 28 30 33 35 35 37 38 38 38 37 36 37 38 38 36 36 36
5 7 11 12 11 13 18 13 8 8 7 6 9 9 13 14 14 19 17 19 23 21 21 23 25 26 26 26 27 28 29 28 28 31 33 34 35 37 39 40 40 40 40 39 38 37 38 37 37
9 8 13 13 12 11 12 14 14 10 10 12 14 15 15 16 18 22 20 21 24 25 25 24 26 24 24 26 28 29 31 32 31 33 34 36 39 42 41 40 40 41 41 42 40 39 41 38 40
12 10 9 12 11 12 14 19 16 14 15 15 16 12 12 17 22 24 23 21 23 24 23 22 23 26 30 33 34 36 37 38 40 40 41 44 44 45 44 46 47 45 43 45 42 44 43 45 46
10 10 8 11 14 15 18 23 20 21 17 19 17 14 15 16 23 25 24 23 26 26 23 23 27 31 34 36 38 41 43 44 45 47 50 51 52 53 53 51 50 50 51 49 48 48 49 45 46
8 7 12 13 16 19 22 24 24 26 24 22 23 18 17 22 31 25 24 23 27 26 23 28 31 35 38 41 43 45 47 49 51 52 52 54 55 55 54 54 53 54 55 53 52 54 54 53 51
9 8 15 18 21 24 26 25 26 26 27 23 23 20 13 22 27 24 22 20 20 24 26 32 35 39 41 42 45 46 48 49 50 51 51 51 51 53 54 53 54 54 55 54 56 55 54 54 58
8 10 17 21 25 27 28 27 27 27 31 31 28 21 23 29 25 19 21 22 27 30 31 35 39 41 44 46 47 48 50 51 50 49 48 47 48 49 50 51 53 54 54 56 59 58 58 58 57
10 13 16 20 23 29 32 33 24 27 30 32 32 25 25 25 23 20 24 26 28 31 34 36 40 43 46 47 46 46 46 44 42 42 44 45 47 49 50 52 52 53 52 52 55 55 57 60 59
14 13 17 20 24 28 30 32 30 29 31 33 31 25 24 22 21 23 24 26 31 33 35 39 42 44 45 44 42 41 39 38 39 40 42 45 48 49 51 52 53 53 51 49 49 50 51 51 53
16 16 18 23 30 34 34 32 32 30 33 31 27 27 21 19 17 23 26 30 32 35 37 40 43 43 42 39 36 35 36 37 40 44 46 46 45 45 47 49 50 50 49 51 50 48 49 49 49
18 19 22 26 32 32 35 37 32 31 33 29 27 23 17 18 21 26 29 32 34 36 38 41 40 40 37 34 32 34 37 40 41 43 45 44 44 46 48 46 45 45 45 46 46 45 44 45 45
18 22 23 29 33 36 39 35 30 33 31 27 25 18 18 22 26 28 32 34 35 37 39 39 38 36 31 30 33 38 40 41 44 45 44 44 45 47 44 40 37 37 38 36 37 36 33 37 38
20 26 32 34 37 39 37 30 31 30 27 24 21 19 21 27 29 31 33 35 36 38 38 36 34 32 28 30 35 37 37 40 41 39 42 45 46 42 35 31 28 28 26 26 26 25 24 27 28
30 35 38 29 36 41 33 31 28 26 25 19 18 24 24 29 30 32 34 36 38 38 36 36 32 30 28 32 35 35 38 40 38 41 43 43 38 34 26 22 21 18 16 18 18 17 15 16 19
31 37 37 37 41 38 31 27 25 22 19 15 22 22 24 28 31 34 36 37 37 36 35 34 30 26 27 31 31 33 36 36 38 40 37 29 27 22 18 15 8 7 6 6 7 12 12 10 10
28 33 39 44 40 30 25 24 19 20 16 19 21 22 25 29 33 35 36 36 36 37 36 32 27 24 27 26 30 31 34 34 36 35 30 27 23 18 11 9 8 6 9 5 6 6 9 9 7
35 38 39 32 28 27 23 21 19 16 17 19 20 23 28 32 34 35 36 36 38 37 35 28 23 22 23 25 28 30 31 31 34 35 32 24 21 14 5 4 10 6 9 9 10 7 5 9 14
37 32 28 26 26 24 20 17 15 15 18 18 22 27 32 35 36 36 37 39 39 35 28 22 19 20 20 24 25 27 28 28 33 37 33 27 20 13 15 9 8 10 4 7 10 11 9 12 15
27 28 25 24 22 18 16 12 12 16 19 21 26 30 34 36 36 38 41 41 34 27 20 17 17 18 20 21 22 25 25 26 31 34 34 31 22 15 11 9 9 8 9 10 12 11 11 9 11
24 22 22 18 15 13 10 11 14 16 19 23 28 31 35 36 37 41 41 35 25 18 15 14 16 18 20 19 22 23 22 25 28 30 32 32 29 23 16 13 11 10 11 13 13 13 11 11 11
21 20 16 13 10 8 9 13 15 17 21 26 29 33 36 34 39 40 37 28 16 14 11 12 14 18 18 19 20 20 21 24 26 27 28 29 29 28 26 23 21 19 19 17 17 15 12 17 19
Wind_Direction
89 58 181 206 115 102 49 26 22 16 21 15 105 98 89 77 74 79 85 78 4 339 348 336 304 302 303 299 288 284 288 295 292 291 291 291 287 280 275 274 276 275 273 272 267 264 264 267 265
77 38 57 232 228 131 56 49 39 37 31 42 83 71 73 75 82 87 87 52 22 316 322 314 312 307 300 298 294 296 295 293 293 290 292 291 289 287 283 278 274 273 272 272 270 269 268 267 266
40 53 62 95 120 213 177 49 21 26 24 29 51 41 30 18 345 114 96 71 246 264 275 292 298 303 308 306 305 306 304 302 301 296 292 286 285 284 282 281 280 277 275 276 277 275 271 265 263
60 48 38 61 83 73 72 57 16 8 15 36 54 43 18 348 283 179 149 139 257 290 332 286 294 305 311 314 312 309 303 301 301 299 295 292 290 287 285 284 284 284 280 275 274 273 270 269 267
67 63 48 43 59 67 57 40 25 9 23 358 17 20 15 3 51 12 280 272 251 271 281 300 308 316 316 319 316 311 309 303 300 299 297 296 293 289 285 280 278 277 278 277 274 270 267 263 260
60 65 54 73 68 60 38 43 41 21 3 347 326 335 7 8 338 329 320 309 287 273 284 288 292 299 301 302 303 302 298 295 294 293 292 292 291 292 289 286 284 280 277 273 271 271 269 267 267
47 49 47 57 57 53 34 30 31 21 7 353 339 336 312 1 332 315 303 262 267 273 286 288 294 296 298 299 295 294 295 292 291 292 291 291 289 286 286 284 281 278 277 277 275 271 272 272 272
49 27 25 25 27 20 3 352 350 2 353 341 325 328 326 326 323 326 315 328 299 287 284 282 289 294 300 298 295 296 293 293 292 288 285 284 284 284 284 283 281 278 274 270 268 267 268 268 267
7 12 17 20 20 21 12 346 334 348 348 5 339 326 326 334 329 329 326 315 314 306 293 297 302 301 302 300 298 295 296 298 292 289 288 286 285 283 281 280 279 277 276 274 270 265 263 264 266
27 11 357 7 31 31 36 45 18 1 343 346 330 322 317 313 310 311 312 308 307 307 301 298 297 297 297 296 295 301 301 297 292 291 292 288 286 281 279 278 277 275 273 271 268 269 266 263 265
8 345 3 29 32 26 26 37 21 3 333 315 310 307 308 295 296 297 292 301 305 307 304 306 307 308 308 307 304 300 299 298 298 295 290 288 286 286 284 280 276 272 269 269 267 264 264 263 260
334 350 25 26 12 23 23 18 14 12 19 1 322 316 317 308 308 323 293 288 302 296 299 309 311 310 311 310 307 304 303 301 299 296 293 290 287 282 277 275 274 270 268 264 251 261 257 260 261
338 343 345 6 15 20 23 17 12 6 350 357 359 349 340 333 328 317 304 285 303 310 310 309 309 308 306 304 303 301 299 296 294 292 290 288 285 282 279 275 270 267 266 261 260 259 257 253 252
343 335 353 357 2 7 11 5 2 1 356 331 333 333 327 331 332 324 305 293 303 304 306 310 307 306 304 301 300 296 293 291 290 288 284 282 281 281 279 276 272 268 265 263 260 256 253 253 245
310 328 0 357 0 1 355 353 351 354 355 343 335 330 320 324 328 320 310 301 303 307 311 307 305 304 302 300 299 297 294 292 290 289 287 284 280 279 279 278 277 273 268 263 260 258 255 254 251
296 344 354 356 358 350 344 335 333 342 344 344 338 329 317 322 333 322 325 309 311 312 305 306 307 307 307 305 302 302 301 299 297 297 296 294 292 288 284 280 277 274 271 265 260 258 257 257 255
310 335 349 351 346 339 343 337 324 339 336 336 334 330 326 331 329 314 314 310 307 305 307 310 311 308 306 305 304 300 298 297 297 295 294 292 289 286 284 283 280 278 275 269 265 261 258 256 256
325 328 339 335 330 334 336 340 335 338 334 332 332 332 334 332 322 309 306 308 309 312 313 312 310 309 308 306 303 302 301 301 300 299 297 295 291 287 284 282 279 276 275 275 271 266 262 258 257
315 316 330 336 331 334 336 333 336 336 332 331 332 334 332 325 313 308 311 311 313 314 314 312 310 311 310 307 304 303 303 300 299 299 297 296 292 291 289 286 282 278 274 271 270 269 264 260 257
321 326 318 321 327 326 327 327 332 332 329 327 329 325 328 328 317 314 316 316 315 313 313 312 312 313 311 306 305 305 305 306 306 305 305 302 298 298 296 289 281 277 275 272 269 264 262 260 259
306 305 310 319 318 317 325 325 327 327 324 323 321 317 321 321 318 320 319 317 316 315 314 314 315 314 308 307 310 312 313 314 314 312 310 308 306 302 298 289 282 277 274 270 265 263 258 254 254
294 314 312 309 312 324 324 320 321 323 323 323 309 311 321 324 320 320 318 318 315 315 316 317 318 316 310 312 313 317 317 316 317 315 319 317 310 304 297 288 282 276 274 271 261 254 251 249 248
308 304 301 316 317 320 322 320 329 322 321 315 308 310 307 317 318 316 317 319 319 319 323 322 320 314 309 313 321 322 323 324 325 326 324 319 317 315 309 299 288 283 277 262 247 238 237 239 235
304 305 316 317 313 316 314 315 322 316 313 301 303 313 315 318 319 319 322 321 320 323 324 323 317 312 313 321 325 327 331 335 333 333 331 334 339 338 330 313 315 294 283 266 233 218 218 224 228
312 310 313 313 312 314 314 313 310 309 305 307 315 321 322 321 319 323 323 322 322 322 322 320 315 311 318 327 331 333 340 341 338 345 352 352 352 355 0 10 51 52 81 83 159 181 197 191 119
312 311 308 306 307 311 313 311 306 303 310 314 320 322 324 322 325 326 324 323 321 320 318 313 311 318 326 334 335 339 348 349 349 5 6 2 4 6 26 82 103 52 70 109 122 99 121 141 152
312 310 308 302 303 309 308 301 305 310 313 321 326 327 325 326 327 326 324 323 323 319 318 311 318 327 333 341 341 349 356 358 5 10 15 16 18 47 60 72 66 65 87 81 125 139 135 137 137
312 304 300 302 308 310 311 304 311 320 325 327 327 328 327 327 327 326 325 326 324 324 322 322 331 335 344 347 351 359 1 13 14 16 23 26 35 51 62 75 51 69 98 107 119 129 125 141 161
308 300 303 304 309 310 307 312 325 329 328 327 328 328 327 328 329 328 328 329 329 329 332 335 339 344 352 356 1 5 11 25 23 21 26 35 41 50 57 60 64 83 103 109 114 127 119 116 135
309 309 314 322 327 319 323 332 333 331 329 331 328 329 329 330 333 332 331 336 334 337 340 344 347 354 3 6 9 7 21 30 32 32 31 35 46 53 57 63 72 87 97 105 107 108 107 117 120
Height
5902 5903 5903 5903 5907 5904 5904 5903 5900 5899 5898 5897 5895 5894 5895 5895 5896 5897 5895 5895 5893 5893 5892 5893 5893 5893 5892 5892 5892 5891 5889 5888 5888 5888 5888 5888 5888 5888 5889 5889 5889 5889 5890 5891 5892 5893 5893 5894 5894
5903 5904 5904 5903 5905 5905 5905 5903 5901 5899 5899 5898 5896 5895 5895 5894 5895 5894 5895 5894 5893 5892 5892 5891 5891 5891 5891 5890 5889 5888 5888 5888 5887 5887 5886 5884 5884 5883 5883 5884 5885 5885 5885 5885 5885 5886 5886 5887 5888
5903 5905 5905 5904 5905 5905 5905 5904 5902 5901 5900 5899 5898 5896 5896 5895 5895 5894 5893 5893 5893 5892 5891 5890 5889 5889 5888 5887 5886 5885 5884 5883 5883 5883 5882 5882 5881 5879 5878 5877 5878 5879 5880 5879 5880 5880 5880 5880 5880
5905 5907 5907 5906 5906 5905 5905 5904 5902 5901 5900 5899 5897 5896 5896 5895 5895 5895 5893 5893 5892 5890 5889 5889 5887 5886 5886 5885 5884 5883 5882 5880 5879 5877 5877 5876 5875 5875 5874 5873 5871 5872 5872 5872 5873 5873 5874 5873 5872
5907 5907 5907 5906 5906 5905 5904 5903 5902 5900 5899 5899 5897 5896 5896 5896 5894 5893 5892 5890 5889 5888 5888 5888 5888 5886 5885 5883 5881 5879 5878 5877 5875 5873 5872 5871 5870 5869 5868 5867 5867 5866 5865 5865 5865 5865 5865 5865 5865
5907 5908 5908 5907 5906 5906 5904 5903 5901 5901 5899 5899 5897 5897 5896 5895 5894 5892 5890 5889 5889 5889 5888 5888 5886 5884 5883 5880 5878 5877 5875 5874 5871 5869 5867 5866 5865 5863 5863 5861 5860 5858 5858 5858 5857 5858 5857 5858 5858
5908 5908 5909 5908 5907 5906 5905 5903 5902 5902 5900 5899 5898 5897 5896 5893 5892 5889 5888 5886 5887 5887 5886 5886 5883 5881 5879 5876 5874 5872 5870 5868 5866 5863 5861 5859 5858 5857 5856 5855 5854 5853 5850 5849 5850 5850 5849 5849 5851
5909 5909 5909 5909 5908 5906 5904 5903 5902 5902 5900 5899 5896 5895 5893 5890 5888 5887 5887 5886 5885 5884 5882 5881 5878 5877 5874 5871 5869 5865 5863 5861 5859 5857 5855 5853 5851 5848 5847 5846 5846 5845 5844 5843 5841 5841 5842 5843 5843
5909 5910 5910 5910 5908 5905 5903 5901 5900 5899 5899 5898 5895 5892 5891 5889 5886 5885 5884 5883 5882 5881 5879 5877 5875 5872 5869 5865 5862 5860 5857 5855 5853 5850 5849 5846 5843 5841 5839 5837 5836 5835 5834 5834 5833 5832 5833 5834 5835
5909 5910 5909 5909 5907 5905 5903 5900 5899 5898 5897 5897 5894 5892 5888 5886 5885 5882 5881 5879 5878 5876 5874 5872 5868 5865 5862 5859 5856 5854 5850 5848 5846 5843 5840 5838 5835 5833 5831 5829 5827 5826 5825 5825 5824 5824 5823 5824 5825
5910 5909 5908 5907 5906 5905 5903 5901 5899 5897 5895 5893 5891 5889 5887 5884 5882 5879 5878 5876 5872 5869 5867 5864 5860 5858 5856 5853 5850 5846 5844 5840 5837 5835 5831 5829 5827 5824 5821 5818 5816 5816 5816 5816 5816 5814 5814 5815 5815
5910 5909 5909 5907 5906 5904 5901 5899 5898 5895 5893 5889 5885 5883 5882 5880 5878 5874 5872 5870 5869 5865 5861 5858 5855 5852 5848 5845 5842 5838 5834 5830 5827 5825 5821 5818 5815 5813 5811 5809 5807 5805 5805 5805 5806 5807 5804 5805 5807
5910 5908 5908 5907 5905 5902 5899 5898 5897 5894 5890 5886 5884 5882 5879 5876 5873 5868 5865 5863 5860 5858 5855 5852 5849 5845 5842 5837 5833 5830 5826 5822 5818 5813 5810 5806 5802 5800 5797 5794 5793 5792 5791 5790 5791 5792 5792 5795 5796
5910 5909 5908 5906 5904 5901 5899 5897 5895 5892 5888 5885 5881 5878 5875 5872 5868 5864 5860 5856 5855 5853 5850 5846 5842 5838 5834 5830 5825 5821 5817 5812 5807 5803 5798 5793 5789 5786 5783 5781 5779 5777 5777 5777 5777 5777 5779 5781 5783
5910 5909 5908 5905 5903 5900 5899 5897 5893 5890 5887 5883 5880 5876 5873 5869 5865 5860 5856 5853 5850 5849 5844 5839 5835 5831 5826 5821 5816 5811 5805 5799 5794 5789 5784 5779 5776 5773 5769 5766 5763 5762 5761 5761 5761 5762 5764 5766 5768
5909 5909 5907 5904 5902 5900 5898 5895 5891 5887 5884 5880 5876 5872 5868 5864 5859 5855 5852 5849 5846 5841 5837 5831 5827 5823 5817 5811 5805 5798 5792 5785 5779 5774 5769 5764 5760 5757 5754 5752 5749 5747 5745 5743 5744 5746 5748 5750 5753
5909 5907 5905 5903 5900 5898 5895 5891 5887 5884 5880 5876 5872 5867 5863 5859 5855 5852 5848 5844 5841 5836 5831 5826 5821 5814 5808 5801 5794 5787 5780 5775 5769 5764 5758 5753 5748 5744 5740 5737 5734 5730 5728 5727 5727 5728 5731 5733 5736
5906 5904 5902 5900 5898 5895 5892 5888 5884 5880 5875 5871 5867 5862 5859 5855 5851 5847 5843 5839 5835 5830 5825 5819 5813 5806 5799 5791 5784 5776 5770 5765 5759 5753 5747 5741 5736 5731 5726 5722 5718 5715 5713 5712 5712 5712 5714 5717 5720
5904 5902 5899 5897 5894 5891 5888 5884 5880 5875 5870 5866 5861 5857 5853 5850 5847 5843 5839 5834 5829 5824 5818 5812 5804 5797 5789 5782 5775 5769 5763 5757 5750 5743 5737 5730 5723 5717 5710 5705 5702 5698 5697 5696 5698 5697 5699 5703 5707
5901 5899 5896 5893 5890 5888 5884 5880 5876 5871 5866 5861 5856 5853 5850 5847 5843 5839 5834 5829 5824 5818 5811 5804 5797 5790 5782 5775 5769 5764 5756 5748 5740 5733 5724 5717 5709 5702 5695 5689 5685 5682 5681 5680 5682 5682 5685 5689 5693
5898 5896 5892 5890 5886 5883 5879 5875 5871 5866 5861 5856 5852 5849 5847 5843 5839 5834 5829 5823 5817 5810 5804 5797 5790 5782 5775 5769 5763 5755 5746 5737 5730 5721 5712 5704 5696 5688 5680 5674 5671 5669 5667 5667 5669 5670 5674 5678 5682
5894 5891 5888 5885 5881 5878 5874 5870 5867 5861 5856 5851 5847 5846 5843 5839 5834 5829 5823 5817 5811 5804 5797 5789 5781 5774 5768 5763 5756 5748 5740 5732 5723 5713 5703 5692 5682 5673 5667 5663 5660 5658 5657 5656 5659 5662 5665 5669 5674
5891 5887 5882 5879 5875 5872 5868 5863 5860 5855 5852 5849 5846 5843 5839 5835 5830 5825 5819 5811 5804 5796 5789 5781 5774 5768 5763 5757 5749 5741 5733 5723 5713 5703 5693 5681 5671 5662 5657 5654 5652 5650 5650 5650 5653 5657 5660 5664 5668
5887 5882 5877 5873 5870 5866 5862 5860 5856 5852 5849 5846 5842 5840 5836 5831 5825 5819 5811 5804 5797 5790 5782 5775 5769 5763 5757 5751 5744 5736 5728 5717 5706 5696 5684 5673 5663 5657 5652 5649 5647 5647 5647 5647 5649 5653 5657 5660 5664
5882 5878 5872 5868 5863 5861 5858 5854 5852 5847 5844 5841 5838 5835 5831 5826 5819 5812 5805 5798 5791 5783 5776 5769 5763 5758 5752 5746 5739 5731 5722 5712 5703 5691 5678 5668 5661 5655 5651 5649 5648 5647 5647 5647 5650 5652 5656 5659 5664
5876 5872 5868 5861 5859 5856 5853 5850 5847 5843 5841 5837 5834 5831 5825 5820 5813 5805 5798 5792 5784 5776 5769 5763 5757 5752 5747 5742 5735 5728 5719 5710 5699 5688 5677 5668 5660 5655 5652 5651 5650 5650 5650 5649 5652 5654 5656 5659 5663
5872 5866 5862 5858 5855 5852 5850 5846 5843 5840 5837 5834 5830 5825 5820 5813 5806 5799 5792 5784 5776 5769 5762 5757 5753 5749 5744 5738 5732 5725 5717 5709 5699 5688 5678 5669 5662 5658 5656 5654 5654 5653 5653 5654 5655 5656 5658 5661 5664
5866 5862 5857 5853 5851 5848 5845 5842 5840 5837 5834 5830 5826 5820 5813 5807 5801 5793 5784 5776 5768 5763 5758 5754 5751 5747 5742 5736 5730 5724 5718 5709 5701 5692 5683 5674 5667 5662 5660 5658 5657 5656 5655 5657 5658 5659 5662 5663 5666
5860 5855 5852 5850 5847 5844 5842 5840 5838 5835 5831 5827 5822 5816 5809 5803 5795 5786 5778 5769 5763 5758 5754 5751 5748 5745 5739 5734 5729 5724 5718 5710 5703 5696 5688 5681 5673 5667 5663 5661 5659 5658 5659 5660 5661 5663 5665 5667 5668
5854 5850 5847 5845 5844 5841 5840 5839 5835 5832 5827 5823 5818 5811 5804 5797 5789 5780 5771 5763 5759 5755 5752 5749 5747 5743 5738 5734 5729 5725 5719 5713 5707 5701 5694 5688 5681 5675 5669 5666 5663 5662 5663 5663 5665 5666 5668 5670 5672